{"data":{"norad_id":49727,"epoch":"2026-09-19T17:41:25.181664Z","epoch_age_seconds":111227,"freshness":"FRESH","line1":"1 49727U 21115D   26262.73709701  .00000395  00000+0  22830-4 0  9996","line2":"2 49727  53.1611 353.5746 0001075  72.3275 287.7845 15.34391771264880","mean_motion":15.34391771,"eccentricity":0.0001075,"inclination_deg":53.1611,"raan_deg":353.5746,"arg_perigee_deg":72.3275,"mean_anomaly_deg":287.7845,"bstar":2.283e-5,"rev_number":26488,"period_min":93.848261390343,"perigee_km":461.99230568349,"apogee_km":463.4630915937,"semimajor_km":6840.8646986386,"source":"CELESTRAK","updated_at":"2026-09-20T09:00:39.403331Z"}}